Weather History for KLOZ - May, 2013

Change the Weather History Date:

Saturday, May 11, 2013

  Actual Average Record
Temperature  
Mean Temperature 59 °F 64 °F  
Max Temperature 67 °F 75 °F 88 °F (2015)
Min Temperature 51 °F 52 °F 35 °F (1997)
Degree Days  
Heating Degree Days 6 4  
Month to date heating degree days 47 48  
Since 1 July heating degree days 4476 4149  
Cooling Degree Days 0 2  
Month to date cooling degree days 1 17  
Year to date cooling degree days 21 43  
Growing Degree Days 10 (Base 50)    
Moisture  
Dew Point 56 °F    
Average Humidity 85    
Maximum Humidity 97    
Minimum Humidity 72    
Precipitation  
Precipitation 0.15 in 0.16 in 1.90 in (1958)
Month to date precipitation 3.12 1.78  
Year to date precipitation 21.59 17.13  
Sea Level Pressure  
Sea Level Pressure 29.93 in    
Wind  
Wind Speed 7 mph (West)    
Max Wind Speed 20 mph    
Max Gust Speed 25 mph    
Visibility 9 miles    
Events Rain    
T = Trace of Precipitation, MM = Missing Value Source: NWS Daily Summary

Daily Weather History Graph

Daily Weather History Graph

Search for Another Location

Airport or City:

Trip Planner

Search our weather history database for the weather conditions in past years. The results will help you decide how hot, cold, wet, or windy it might be!

Date:

Astronomy

May. 11, 2013 Rise Set
Actual Time 6:31 AM EDT 8:34 PM EDT
Civil Twilight 6:02 AM EDT 9:03 PM EDT
Nautical Twilight 5:27 AM EDT 9:38 PM EDT
Astronomical Twilight 4:49 AM EDT 10:16 PM EDT
Moon 7:39 AM EDT (5/11) 10:13 PM EDT (5/11)
Length of Visible Light 15h 00m
Length of Day
14h 03m
Waxing Crescent, 3% of the Moon is Illuminated
May 11
Waxing Crescent
May 18
First Quarter
May 25
Full
May 31
Last Quarter
Jun 8
New

Hourly Weather History & Observations

Time (EDT) Temp. Dew Point Humidity Pressure Visibility Wind Dir Wind Speed Gust Speed Precip Events Conditions
12:01 AM 62.6 °F 59.0 °F 88% 29.95 in 6.0 mi Calm Calm - 0.00 in Rain Light Rain
12:31 AM 60.8 °F 59.0 °F 94% 29.95 in 10.0 mi Calm Calm - 0.00 in   Overcast
12:53 AM 62.1 °F 59.0 °F 90% 29.92 in 8.0 mi SSW 6.9 mph - 0.02 in Rain Light Rain
1:46 AM 60.8 °F 59.0 °F 94% 29.94 in 10.0 mi SSW 5.8 mph - 0.00 in   Overcast
1:53 AM 61.0 °F 59.0 °F 93% 29.91 in 10.0 mi SSW 3.5 mph - 0.00 in   Overcast
2:53 AM 61.0 °F 59.0 °F 93% 29.90 in 10.0 mi SSW 5.8 mph - 0.02 in   Overcast
3:53 AM 61.0 °F 59.0 °F 93% 29.89 in 10.0 mi SW 5.8 mph - 0.00 in   Overcast
4:19 AM 60.8 °F 59.0 °F 94% 29.91 in 6.0 mi WSW 5.8 mph - 0.01 in Rain Light Rain
4:50 AM 59.0 °F 57.2 °F 94% 29.91 in 10.0 mi WNW 6.9 mph - 0.04 in Rain Light Rain
4:53 AM 59.0 °F 57.0 °F 93% 29.89 in 10.0 mi WNW 5.8 mph - 0.04 in Rain Light Rain
5:53 AM 57.9 °F 55.9 °F 93% 29.90 in 10.0 mi Calm Calm - 0.06 in   Overcast
6:53 AM 57.9 °F 55.9 °F 93% 29.90 in 8.0 mi Calm Calm - 0.01 in Rain Light Rain
7:26 AM 57.2 °F 55.4 °F 94% 29.92 in 10.0 mi Calm Calm - 0.00 in   Overcast
7:39 AM 57.2 °F 55.4 °F 94% 29.92 in 10.0 mi Calm Calm - 0.00 in   Overcast
7:53 AM 57.9 °F 57.0 °F 97% 29.90 in 10.0 mi SSW 3.5 mph - 0.00 in   Overcast
8:02 AM 57.2 °F 57.2 °F 100% 29.92 in 10.0 mi SSW 4.6 mph - N/A   Overcast
8:53 AM 60.1 °F 57.9 °F 93% 29.92 in 10.0 mi WSW 5.8 mph - N/A   Overcast
9:13 AM 59.0 °F 57.2 °F 94% 29.94 in 4.0 mi WSW 4.6 mph - 0.00 in Rain Light Rain
9:22 AM 59.0 °F 57.2 °F 94% 29.94 in 4.0 mi WSW 5.8 mph - 0.00 in Rain Light Rain
9:29 AM 59.0 °F 57.2 °F 94% 29.94 in 6.0 mi West 8.1 mph - 0.00 in   Overcast
9:53 AM 60.1 °F 57.9 °F 93% 29.91 in 4.0 mi West 4.6 mph - 0.00 in   Overcast
10:45 AM 60.8 °F 57.2 °F 88% 29.94 in 1.8 mi WNW 6.9 mph - N/A   Overcast
10:53 AM 59.0 °F 57.9 °F 96% 29.92 in 1.5 mi West 5.8 mph - 0.00 in Rain Light Rain
11:04 AM 59.0 °F 57.2 °F 94% 29.94 in 3.0 mi West 4.6 mph - 0.01 in Rain Light Rain
11:14 AM 60.8 °F 59.0 °F 94% 29.94 in 2.0 mi Calm Calm - 0.01 in Rain Light Rain
11:26 AM 60.8 °F 59.0 °F 94% 29.94 in 3.0 mi West 5.8 mph - 0.02 in Rain Light Rain
11:53 AM 61.0 °F 59.0 °F 93% 29.93 in 9.0 mi West 9.2 mph - 0.02 in   Overcast
12:04 PM 62.6 °F 59.0 °F 88% 29.94 in 10.0 mi West 10.4 mph - N/A   Overcast
12:07 PM 62.6 °F 59.0 °F 88% 29.94 in 10.0 mi West 11.5 mph - N/A   Overcast
12:24 PM 60.8 °F 59.0 °F 94% 29.94 in 10.0 mi West 9.2 mph - N/A   Overcast
12:53 PM 63.0 °F 60.1 °F 90% 29.91 in 10.0 mi West 6.9 mph - 0.00 in   Overcast
1:00 PM 62.6 °F 59.0 °F 88% 29.93 in 10.0 mi West 6.9 mph - N/A   Mostly Cloudy
1:16 PM 66.2 °F 59.0 °F 78% 29.93 in 10.0 mi West 12.7 mph - N/A   Mostly Cloudy
1:53 PM 66.0 °F 57.9 °F 75% 29.90 in 10.0 mi West 10.4 mph - N/A   Overcast
2:00 PM 66.2 °F 57.2 °F 73% 29.92 in 10.0 mi West 10.4 mph - N/A   Overcast
2:29 PM 66.2 °F 57.2 °F 73% 29.92 in 10.0 mi West 13.8 mph - 0.00 in   Overcast
2:53 PM 64.9 °F 57.0 °F 75% 29.91 in 10.0 mi WNW 13.8 mph - 0.00 in   Overcast
3:01 PM 64.4 °F 57.2 °F 77% 29.92 in 10.0 mi West 13.8 mph 20.7 mph N/A   Overcast
3:18 PM 66.2 °F 55.4 °F 68% 29.92 in 10.0 mi West 18.4 mph 21.9 mph N/A   Mostly Cloudy
3:53 PM 62.1 °F 55.0 °F 78% 29.91 in 10.0 mi WNW 16.1 mph 23.0 mph N/A   Mostly Cloudy
4:12 PM 62.6 °F 55.4 °F 77% 29.93 in 10.0 mi WNW 10.4 mph 19.6 mph N/A   Overcast
4:22 PM 62.6 °F 53.6 °F 72% 29.93 in 10.0 mi WNW 12.7 mph 18.4 mph N/A   Overcast
4:53 PM 62.1 °F 54.0 °F 75% 29.92 in 10.0 mi WNW 12.7 mph - N/A   Overcast
5:20 PM 62.6 °F 53.6 °F 72% 29.94 in 10.0 mi West 10.4 mph - N/A   Mostly Cloudy
5:30 PM 60.8 °F 53.6 °F 77% 29.94 in 10.0 mi West 10.4 mph - N/A   Overcast
5:53 PM 60.1 °F 52.0 °F 75% 29.94 in 10.0 mi WNW 15.0 mph 20.7 mph N/A   Overcast
6:34 PM 59.0 °F 51.8 °F 77% 29.95 in 10.0 mi West 12.7 mph - N/A   Overcast
6:53 PM 59.0 °F 51.1 °F 75% 29.93 in 10.0 mi West 11.5 mph - N/A   Overcast
7:53 PM 59.0 °F 50.0 °F 72% 29.94 in 10.0 mi WNW 9.2 mph - N/A   Overcast
8:53 PM 57.0 °F 50.0 °F 77% 29.95 in 10.0 mi WSW 4.6 mph - N/A   Partly Cloudy
9:53 PM 55.9 °F 50.0 °F 80% 29.97 in 10.0 mi WSW 3.5 mph - N/A   Mostly Cloudy
10:22 PM 53.6 °F 50.0 °F 88% 29.99 in 10.0 mi West 4.6 mph - N/A   Mostly Cloudy
10:30 PM 53.6 °F 50.0 °F 88% 29.99 in 10.0 mi West 4.6 mph - N/A   Scattered Clouds
10:53 PM 54.0 °F 50.0 °F 86% 29.98 in 10.0 mi WSW 3.5 mph - N/A   Partly Cloudy
11:53 PM 52.0 °F 50.0 °F 93% 29.98 in 10.0 mi Calm Calm - N/A   Partly Cloudy